This is the latest recevied weather packets stored in our database for station/object N9CQL. If no packets are shown the sender has not sent any weather packets the latest 1 day(s).
| Time | Temp. | Humidity | Pressure | Rain* | Wind** | Luminosity | Snow |
|---|---|---|---|---|---|---|---|
| 1777984743 | 8.33° C | 85% | 1007.5 hPa | 3.05 mm | 0 m/s | 16 W/m² | - |
| 1777984439 | 8.33° C | 84% | 1007.4 hPa | 4.83 mm | 0 m/s | 16 W/m² | - |
| 1777984135 | 8.33° C | 82% | 1007.4 hPa | 4.32 mm | 0 m/s | 12 W/m² | - |
| 1777983833 | 8.33° C | 80% | 1007.4 hPa | 3.05 mm | 0 m/s | 10 W/m² | - |
| 1777983529 | 8.89° C | 79% | 1007.6 hPa | 3.05 mm | 0 m/s | 6 W/m² | - |
| 1777983226 | 9.44° C | 79% | 1008 hPa | 3.56 mm | 0 m/s | 6 W/m² | - |
| 1777982922 | 9.44° C | 75% | 1007.8 hPa | 3.05 mm | 0 m/s | 6 W/m² | - |
| 1777982618 | 10° C | 70% | 1007.4 hPa | 1.27 mm | 0 m/s | 4 W/m² | - |
| 1777982317 | 10° C | 65% | 1007.3 hPa | 0 mm | 0 m/s | 4 W/m² | - |
| 1777982014 | 10.56° C | 60% | 1006.9 hPa | 0 mm | 0 m/s | 3 W/m² | - |
| 1777981712 | 10.56° C | 56% | 1006.6 hPa | 0 mm | 0 m/s | 3 W/m² | - |
| 1777981409 | 10.56° C | 53% | 1006.7 hPa | 0 mm | 0 m/s | 3 W/m² | - |
| 1777981105 | 10.56° C | 52% | 1006.7 hPa | 0 mm | 0 m/s | 2 W/m² | - |
| 1777980802 | 10.56° C | 53% | 1006.3 hPa | 0 mm | 0 m/s | 1 W/m² | - |
| 1777980497 | 11.11° C | 53% | 1006.2 hPa | 0 mm | 0 m/s | 1 W/m² | - |
| 1777980195 | 11.11° C | 54% | 1005.8 hPa | 0 mm | 0 m/s | 1 W/m² | - |
| 1777979890 | 11.11° C | 53% | 1005.4 hPa | 0 mm | 0.45 m/s, 29° | 2 W/m² | - |
| 1777979586 | 11.11° C | 54% | 1005.2 hPa | 0 mm | 0.45 m/s, 251° | 3 W/m² | - |
| 1777979282 | 11.11° C | 55% | 1005.5 hPa | 0 mm | 0 m/s | 5 W/m² | - |
| 1777978980 | 11.11° C | 58% | 1005.5 hPa | 0 mm | 0 m/s | 4 W/m² | - |
| 1777978676 | 11.11° C | 59% | 1005.6 hPa | 0 mm | 0 m/s | 0 W/m² | - |
| 1777978372 | 11.11° C | 58% | 1005.6 hPa | 0 mm | 0 m/s | 1 W/m² | - |
| 1777978068 | 11.11° C | 58% | 1005.5 hPa | 0 mm | 0 m/s | 0 W/m² | - |
| 1777977766 | 11.67° C | 60% | 1005.8 hPa | 0 mm | 0 m/s | 0 W/m² | - |
| 1777977462 | 11.67° C | 59% | 1005.9 hPa | 0 mm | 0 m/s | 0 W/m² | - |
* Rain latest hour (hover to see other rain measurements)
** Current wind speed in m/s (hover to see current wind gust speed)